This demonstration page uses our WeatherBlox Daily Observations layout. Learn more.

Left ArrowRight Arrow

36.19886, -115.1175

Hourly Observations for October 6, 2020

Temp ( °F °C ) Dew Point ( °F °C ) Humidity (%) Winds ( mph kmh ) Pressure ( in mb ) Visibility ( mi km ) Precip ( " mm )
12:53 am 00:53 Clear 74 23.3 20 -6.7 13 13 W 7 11 29.98 1015 10 16 0.00 0.00
1:53 am 01:53 Clear 75 23.9 19 -7.2 12 12 W 9 15 29.98 1015 10 16 0.00 0.00
2:53 am 02:53 Clear 73 22.8 17 -8.3 12 12 WNW 8 13 29.98 1015 10 16 0.00 0.00
3:53 am 03:53 Clear 72 22.2 15 -9.4 11 11 WNW 6 9 29.98 1015 10 16 0.00 0.00
4:53 am 04:53 Clear 71 21.7 15 -9.4 12 12 Calm 29.99 1016 10 16 0.00 0.00
5:53 am 05:53 Clear 67 19.4 19 -7.2 16 16 W 7 11 30.01 1016 10 16 0.00 0.00
6:53 am 06:53 Sunny 67 19.4 21 -6.1 17 17 NW 6 9 30.03 1017 10 16 0.00 0.00
7:53 am 07:53 Sunny 71 21.7 20 -6.7 14 14 Calm 30.05 1018 10 16 0.00 0.00
8:53 am 08:53 Sunny 77 25 20 -6.7 12 12 Calm 30.06 1018 10 16 0.00 0.00
9:53 am 09:53 Sunny 84 28.9 19 -7.2 9 9 Calm 30.06 1018 10 16 0.00 0.00
10:53 am 10:53 Sunny 86 30 15 -9.4 7 7 SSW 3 6 30.05 1018 10 16 0.00 0.00
11:53 am 11:53 Sunny 90 32.2 15 -9.4 6 6 SW 3 6 30.02 1017 10 16 0.00 0.00
12:53 pm 12:53 Sunny 92 33.3 12 -11.1 5 5 Calm 30.00 1016 10 16 0.00 0.00
1:53 pm 13:53 Sunny 94 34.4 11 -11.7 4 4 Calm 29.96 1015 10 16 0.00 0.00
2:53 pm 14:53 Sunny 95 35 11 -11.7 4 4 Calm 29.93 1014 10 16 0.00 0.00
3:53 pm 15:53 Sunny 96 35.6 11 -11.7 4 4 SSE 5 7 29.92 1013 10 16 0.00 0.00
4:53 pm 16:53 Sunny 96 35.6 13 -10.6 5 5 S 5 7 29.90 1013 10 16 0.00 0.00
5:53 pm 17:53 Sunny 94 34.4 16 -8.9 6 6 WSW 3 6 29.90 1012 10 16 0.00 0.00
6:53 pm 18:53 Clear 88 31.1 20 -6.7 8 8 Calm 29.90 1013 10 16 0.00 0.00
7:53 pm 19:53 Clear 83 28.3 26 -3.3 12 12 W 5 7 29.92 1013 10 16 0.00 0.00
8:53 pm 20:53 Clear 81 27.2 23 -5 12 12 NW 6 9 29.91 1013 10 16 0.00 0.00
9:53 pm 21:53 Clear 79 26.1 25 -3.9 14 14 Calm 29.91 1013 10 16 0.00 0.00
10:53 pm 22:53 Clear 75 23.9 24 -4.4 15 15 NW 5 7 29.92 1013 10 16 0.00 0.00
11:53 pm 23:53 Clear 76 24.4 24 -4.4 14 14 W 6 9 29.91 1013 10 16 0.00 0.00

Powered by AerisWeather